www.pogodaiklimat.ru

Погода и климат >> Архив погоды >> Россия >> Пензенская область >> Пачелма


ПОГОДА в Пачелме

  • Прогноз погоды в Пачелме
  • Монитор погоды в Пачелме

АРХИВ ПОГОДЫ в Пачелме

Время (UTC), дата Ветер
(напр.,м/с)
 
Видим.   Явления Облачность Т
(С)
Тd
(С)
f
(%)
Тe
(С)
Тes
(С)
Комфортность P
(гПа)
Po
(гПа)
Тmin
(С)
Tmax
(С)
R
(мм)
R24
(мм)
S
(см)
12 12.08 СЗ 4 10 км ясно +18.3 +6.1 45 +18 +24 1015.4 985.0
15 12.08 СЗ 3 10 км ясно +17.8 +6.0 46 +18 +19 1015.9 985.4 +18.7
18 12.08 С 1 10 км ясно +11.2 +6.5 73 +11 +11 1017.6 986.4
21 12.08 С 1 10 км ясно +7.9 +5.6 85 +7 +7 1018.4 986.8
00 13.08 З 1 10 км ясно +5.4 +5.1 98 +4 +4 1019.4 987.5
03 13.08 СЗ 1 10 км 1/0
[Ci fib]
+6.4 +6.1 98 +5 +6 1019.4 987.6 +3.8
06 13.08 СЗ 3 10 км 3/0
[Cc]
+15.4 +6.6 56 +15 +21 1019.1 988.3
09 13.08 С 3 10 км 3/0
[Cc]
+19.9 +6.1 41 +21 +31 комфорт 1017.3 987.0
12 13.08 С 3 10 км 3/1 600 м
[Cu hum Cc]
+22.4 +9.4 44 +24 +30 комфорт 1016.2 986.2
15 13.08 С 1 10 км 9/0
[Cc]
+21.7 +11.1 51 +24 +24 комфорт 1015.8 985.8 +23.3
18 13.08 В 1 10 км 8/0
[Ci]
+15.6 +11.8 78 +16 +16 1015.8 985.2
21 13.08 Ю 2 10 км 8/0
[Ci fib]
+14.7 +11.0 78 +14 +14 1016.0 985.2
00 14.08 Ю 3 10 км 8/0
[Ci fib]
+15.3 +11.4 78 +15 +15 1014.4 983.8
03 14.08 Ю 3 10 км {дождь} 10/0
[As op]
+15.3 +13.6 90 +15 +15 1013.1 982.5 +14.0 0.5
06 14.08 ЮЗ 4 10 км {дождь} 8/0
[Cs]
+20.3 +15.5 74 +23 +27 комфорт 1011.5 981.5
09 14.08 З 3 10 км 8/0
[Cs]
+26.8 +18.2 59 +31 +41 душно 1010.4 981.1
12 14.08 СЗ 3 10 км 8/3 600 м
[Cu hum Cs]
+28.9 +17.7 51 +33 +37 очень
душно
1010.4 981.3
15 14.08 СЗ 3 10 км 3/1 600 м
[Cu hum Ci fib]
+26.8 +17.5 57 +31 +32 душно 1011.7 982.4 +29.1
18 14.08 С 2 10 км ясно +21.9 +16.6 72 +26 +26 душно 1013.3 983.4
21 14.08 СВ 2 10 км ясно +18.8 +16.4 86 +21 +21 комфорт 1013.8 983.6
00 15.08 В 2 10 км ясно +16.8 +16.4 97 +17 +17 1013.9 983.5 +15.9
03 15.08 ЮВ 2 10 км ясно +17.3 +17.1 99 +18 +18 1014.2 983.8 +15.9
06 15.08 Ю 3 10 км ясно +24.9 +18.5 68 +30 +36 душно 1013.2 983.7
09 15.08 Ю 3 10 км 4/0
[Ac trans Cs]
+30.0 +19.8 54 +36 +45 очень
душно
1012.1 983.1
12 15.08 ЮЗ 4 10 км 3/3 600 м
[Cu hum]
+31.7 +18.0 44 +36 +40 очень
душно
1011.1 982.3
15 15.08 ЮЗ 3 10 км 3/1 600 м
[Cu hum Cc]
+30.0 +18.0 49 +35 +35 очень
душно
1010.9 981.9 +31.7
18 15.08 Ю 2 10 км 3/1 600 м
[Sc diur, vesp Cs]
+24.6 +17.9 66 +29 +29 душно 1012.2 982.6
21 15.08 Ю 3 10 км 4/0
[Ac trans]
+22.6 +18.6 78 +28 +28 душно 1012.6 982.8
00 16.08 Ю 4 10 км 8/0
[Ac trans]
+22.2 +17.4 74 +27 +27 душно 1012.2 982.4
03 16.08 Ю 3 10 км 10/0
[As trans]
+21.1 +16.3 74 +24 +25 комфорт 1011.9 982.0 +21.1
06 16.08 Ю 3 10 км 10/0
[Ac trans Cs]
+26.2 +15.7 52 +29 +33 жарко 1011.1 981.7 +21.0
09 16.08 В 2 10 км 10/3 600 м
[Sc As trans]
+27.4 +17.7 55 +32 +35 очень
душно
1010.3 981.1
12 16.08 СВ 3 10 км 10/3 600 м
[Sc As trans]
+27.0 +18.9 61 +32 +34 очень
душно
1009.6 980.3
15 16.08 СВ 5-10
{10}
10 км {гроза} 10/5 600 м
[Cb cap Ac As]
+21.5 +16.8 75 +25 +25 комфорт 1010.8 981.0 +28.6
18 16.08 СВ 3
{11}
10 км {гроза} 10/10 660 м
[Sc]
+19.5 +16.9 85 +22 +22 комфорт 1011.0 981.0
21 16.08 В 3 10 км 10/8 700 м
[Sc Ac As]
+19.0 +17.5 91 +21 +21 комфорт 1010.5 980.4
00 17.08 В 2 10 км 10/10 720 м
[Sc]
+18.6 +17.7 95 +20 +20 1011.0 980.9
03 17.08 В 3 10 км 9/8 700 м
[Sc Ac trans]
+18.8 +17.1 90 +20 +20 1011.0 980.9 +18.4
06 17.08 В 3 10 км 10/10 600 м
[Sc]
+21.5 +17.5 78 +26 +26 душно 1010.5 980.7
09 17.08 ЮВ 2 10 км 10/10 600 м
[Sc]
+21.3 +16.8 76 +25 +25 комфорт 1012.1 982.2
12 17.08 В 2 10 км {дождь} 10/10 570 м
[Sc]
+21.6 +17.6 78 +26 +26 душно 1011.5 981.7
15 17.08 В 2 10 км 10/10 630 м
[Sc]
+21.8 +16.7 73 +26 +26 душно 1010.6 980.8 +22.3 0.3
18 17.08 В 2 10 км слаб. дождь 10/10 600 м
[Sc]
+20.3 +17.3 83 +24 +24 комфорт 1010.1 980.2
21 17.08 ЮВ 4 10 км 10/10 570 м
[Sc]
+21.4 +15.3 68 +25 +25 комфорт 1008.3 978.5
00 18.08 Ю 2 10 км 4/0
[Ac trans]
+18.7 +14.3 76 +20 +20 1009.1 979.0
03 18.08 ЮЗ 2 10 км 4/0
[Cc]
+16.7 +14.1 85 +17 +17 1010.0 979.6 +16.5 0.3
06 18.08 ЮЗ 2 10 км 5/0
[Cc]
+22.5 +16.7 70 +27 +34 душно 1010.4 980.7
09 18.08 Ю 3 10 км 3/1 1000 м
[Cu hum Cc]
+26.2 +15.5 52 +29 +38 жарко 1010.7 981.3
12 18.08 ЮЗ 3 10 км 8/5 600 м
[Sc Ac As]
+27.1 +16.3 52 +31 +32 душно 1011.4 982.1
15 18.08 З 1 10 км 4/3
[Sc Ac cuf]
+26.6 +17.1 56 +31 +31 душно 1011.8 982.5 +27.6
18 18.08 Ю 3
{12}
10 км 9/9 630 м
[Cb cap]
+20.5 +18.1 86 +24 +24 комфорт 1014.0 984.0
21 18.08 ЮЗ 1 10 км 10/10 600 м
[Sc]
+19.8 +15.2 75 +23 +23 комфорт 1014.4 984.3
00 19.08 Ю 2 10 км 5/0
[Ac trans]
+18.0 +16.2 89 +19 +19 1014.9 984.6
03 19.08 Ю 1 10 км 8/3 600 м
[Sc Ac trans]
+17.7 +16.8 94 +19 +19 1015.7 985.4 +17.0
06 19.08 З 1 10 км 10/5 600 м
[Sc Ac As]
+20.3 +17.8 86 +25 +26 комфорт 1016.3 986.2

 

Местоположение метеостанции Пачелма (Пензенская область, Россия): широта 53.33 долгота 43.32 высота над уровнем моря 261 м.

В архиве по умолчанию представлена погода в Пачелме за последнюю неделю. Архивные данные за месяц целиком и за предыдущие месяцы, начиная с января 2011 года, Вы можете получить, выбрав интересующий диапазон дат из раскрывающегося списка и нажав кнопку "Ввод!".


*Определитесь, кто Вы:
робот инопланетянин человек

Внимание! Время в таблицах - всемирное. Для получения местного времени необходимо прибавить поправку, которая равна 3 ч.

Смотрите также архив погоды в соседних городах и на ближайших метеорологических станциях:

Погода в Белинском (Пензенская область, Россия) (40 км)
Погода в Земетчино (Пензенская область, Россия) (49 км)
Погода в Каменке (Пензенская область, Россия) (50 км)
Погода в Торбеево (Мордовия, Россия) (84 км)
Погода в Кирсанове (Тамбовская область, Россия) (84 км)
Погода в Инсаре (Мордовия, Россия) (92 км)
Погода в Моршанске (Тамбовская область, Россия) (102 км)
Погода в Пензе (Пензенская область, Россия) (116 км)
Погода в Колышлее (Пензенская область, Россия) (116 км)
Погода в Ртищево (Саратовская область, Россия) (124 км)

Пояснения к столбцам:

Ветер - указаны скорость ветра в м/с - средняя за 10 мин, порывы в срок и между сроками (в фигурных скобках) и направление, откуда дует ветер: С - северный, СВ - северо-восточный, В - восточный, ЮВ - юго-восточный, Ю - южный, ЮЗ - юго-западный, З - западный, СЗ - северо-западный.
Видимость - горизонтальная дальность видимости в метрах или километрах. При видимости от 1 до 10 км при отсутствии осадков обычно наблюдается дымка, при ухудшении видимости до 1 км и менее - туман. В сухую погоду видимость может ухудшаться дымом, пылью или мглою.
Явления - указаны атмосферные явления, наблюдавшиеся в срок или в последний час перед сроком; фигурными скобками обозначены явления, наблюдавшиеся между сроками (за 1-3 часа до срока); квадратными скобками обозначены град или гололедные отложения с указанием их диаметра в мм.
Облачность - указаны через наклонную черту общая и нижняя облачность в баллах и высота нижней границы облаков в метрах; квадратными скобками обозначены формы облаков: Ci - перистые, Cs - перисто-слоистые, Cc - перисто-кучевые, Ac - высококучевые, As - высокослоистые, Sc - слоисто-кучевые, Ns - слоисто-дождевые, Cu - кучевые, Cb - кучево-дождевые. Подробнее классификацию облаков см. в Атласе облаков (PDF).
T - Температура воздуха - температура, измеренная на высоте 2 м над землей.
Td - Температура точки росы - температура, при понижении до которой содержащийся в воздухе водяной пар достигнет насыщения.
f - Относительная влажность воздуха - влажноcть воздуха, измеренная на высоте 2 м над землей.
Te - Эффективная температура - температура, которую ощущает одетый по сезону человек в тени. Характеристика душности погоды. При расчете учитывается влияние влажности воздуха и скорости ветра на теплоощущения человека.
Tes - Эффективная температура на солнце - температура, которую ощущает человек, с поправкой на солнечный нагрев. Характеристика знойности погоды. Зависит от высоты солнца над горизонтом, облачности и скорости ветра. Ночью, в пасмурную погоду, а также при ветре 12 м/с и более поправка равна нулю.
P - Атмосферное давление - приведенное к уровню моря атмосферное давление.
Po - Атмосферное давление - измеренное на уровне метеостанции атмосферное давление.
Tmin - Минимальная температура - минимум температуры воздуха на высоте 2 м над землей.
Tmax - Максимальная температура - максимум температуры воздуха на высоте 2 м над землей.
R - Количество осадков - Количество выпавших осадков за период времени, мм. При наведении курсора мыши на число - период времени, за который выпало указанное количество осадков.
R24 - Количество осадков - Количество выпавших осадков за 24 часа, мм.
S - Снежный покров - Высота снежного покрова, см. При наведении курсора мыши на число - состояние снежного покрова и степень покрытия местности в баллах.